Terug naar catalogus

SL-8 R/B

ActiefPO
NORAD 16728·ROCKET BODY·🇷🇺 Russia

Gelanceerd May 23, 1986 vanaf Plesetsk Cosmodrome

Loading…

Volgende Passages (komende 24 uur)

TLE

VersSource: Space-Track

Epoch: Sep 14, 2026, 05:07 UTC

1 16728U 86037B   26257.21370946  .00000054  00000-0  39118-4 0  9997
2 16728  82.9595 353.3729 0032013 114.4174 271.2227 13.77093484 24877

Volg SL-8 R/B in realtime met AllMySat

Download on the App Store